Location: Nitra
(0.0000°N, 18.0833°E)
Time: 05:45:22
(UTC+01:00)

Cosmos 1892 - Pass Details

Date: 24 January 2021
Orbit: 504 x 522 km, 82.5° (Epoch: 04 March)

Event Time Altitude Azimuth Distance (km) Brightness Sun altitude
Rises 18:29:48 0° 163° (SSE) 2,604 6.3 -7.1°
Reaches altitude 10° 18:32:13 10° 149° (SSE) 1,715 5.2 -7.6°
Maximum altitude 18:35:16 24° 94° (E) 1,082 3.8 -8.4°
Drops below altitude 10° 18:38:19 10° 39° (NE) 1,705 4.8 -9.1°
Enters shadow 18:39:03 - 33° (NNE) 1,959 5.2 -9.3°
